Torna al catalogo

QIANFAN-42

AttivoComunicazioniPO
NORAD 62243·PAYLOAD·🇨🇳 China

Lanciato Dec 5, 2024 da Taiyuan Satellite Launch Center

Loading…

Prossimi Passaggi (prossime 24 ore)

TLE

AggiornatoSource: Space-Track

Epoca: Sep 14, 2026, 12:57 UTC

1 62243U 24232G   26257.53993595  .00000349  00000-0  14380-3 0  9995
2 62243  89.0138   6.0052 0012746 259.3300 100.6457 14.24645556140632

Traccia QIANFAN-42 in tempo reale con AllMySat

Download on the App Store